KUIPER-00102

导读

KUIPER-00102是美国亚马逊柯伊伯(Kuiper)卫星互联网项目的卫星,于2025年8月11日发射。该项目旨在通过数千颗低轨卫星,为全球尤其是偏远地区提供高速低延迟、价格可负担的互联网接入。卫星配备多波束相控阵天线与高增益抛物面天线,可灵活分配容量,计划采用激光星间链路实现高速组网,工作于Ka频段,是亚马逊布局低轨卫星互联网的重要组成部分。

基本信息
目录编号:
65140
目录名称:
KUIPER-00102
国际标识:
2025-171J
轨道中心:
EARTH
卫星名称:
KUIPER-00102
卫星全名:
KUIPER-00102
卫星状态:
在轨 (已飞行305 天)
发射日期:
2025-08-11 UTC
国别 :
美国 (US)
星等 :
--
轨道信息
数据来源 国际轨道数据 AOE轨道数据
星历时间 2026-06-12T08:31:40+0800
19小时前
查看轨道信息
2026-06-11T01:00:00+0800
2天前
查看轨道信息
半长轴 7007.685km 7007.672km
偏心率 0.0000812 0.0000935
轨道倾角 51.898° 51.899°
近地点辐角 94.832° 64.169°
升交点赤经 95.924° 101.734°
平近点角 265.274° 132.880°
近地点 628.978km 628.879km
远地点 630.118km 630.191km
周期 97.302分钟 97.302分钟
每日圈数 14.799291 14.799333
详细信息
使用方式:
暂无
2D轨道图
3D轨道图
轨道高度分析图
轨道倾角分析图
轨道综合分析图
查看轨道综合分析图